GW3925 Weather Reports


Display with metric or nautical units.
time (UTC)temp
F
wind
direction
speed
MPH
gust
MPH
rain 1hr
in
rain 24hr
in
rain mn
in
humidity
%
barometer
mb
20260505111538 53 162 1.0 5.0 0.00 0.00 0.00 92 1015.2
20260505101547 53 0 0.0 2.0 0.00 0.00 0.00 93 1015.1
20260505100045 53 214 3.0 4.0 0.00 0.00 0.00 92 1015.2
20260505094546 53 0 0.0 5.0 0.00 0.00 0.00 92 1015.2
20260505093043 53 198 2.0 4.0 0.00 0.00 0.00 92 1015.0
20260505091549 53 207 0.0 2.0 0.00 0.00 0.00 92 1014.9
20260505090104 53 209 0.0 3.0 0.00 0.00 0.00 91 1015.0
20260505084559 53 180 1.0 4.0 0.00 0.00 0.00 92 1014.9
20260505083059 53 147 1.0 3.0 0.00 0.00 0.00 91 1014.7
20260505081556 53 0 0.0 5.0 0.00 0.00 0.00 91 1014.7
20260505080052 53 161 2.0 5.0 0.00 0.00 0.00 91 1014.9
20260505074541 53 133 2.0 8.0 0.00 0.00 0.00 91 1014.9
20260505073049 53 0 2.0 4.0 0.00 0.00 0.00 91 1014.9
20260505071545 53 97 1.0 6.0 0.00 0.00 0.00 90 1015.0
20260505070050 54 131 0.0 7.0 0.00 0.00 0.00 90 1014.9
20260505064542 53 181 3.0 6.0 0.00 0.00 0.00 90 1015.0
20260505063049 54 167 2.0 6.0 0.00 0.00 0.00 90 1015.0
20260505061539 54 150 1.0 4.0 0.00 0.00 0.00 90 1015.0
20260505060056 54 285 2.0 6.0 0.00 0.00 0.00 89 1015.1
20260505054537 54 160 3.0 7.0 0.00 0.00 0.00 89 1014.9
20260505053044 54 172 3.0 7.0 0.00 0.00 0.00 88 1015.0
20260505051543 54 136 1.0 9.0 0.00 0.00 0.00 87 1015.2
20260505041552 55 162 3.0 8.0 0.00 0.00 0.00 86 1014.6
20260505040046 55 123 2.0 10.0 0.00 0.00 0.00 86 1014.6
20260505034546 55 155 4.0 8.0 0.00 0.00 0.00 85 1014.4
20260505033038 55 302 1.0 7.0 0.00 0.00 0.00 85 1014.3
20260505031536 55 124 4.0 11.0 0.00 0.00 0.00 85 1013.8
20260505030056 55 0 2.0 7.0 0.00 0.00 0.00 85 1014.0
20260505024545 55 146 5.0 11.0 0.00 0.00 0.00 85 1014.0
20260505023042 55 155 1.0 10.0 0.00 0.00 0.00 84 1014.0
20260505021538 56 175 3.0 11.0 0.00 0.00 0.00 83 1013.8
20260505020048 56 160 3.0 7.0 0.00 0.00 0.00 81 1013.8
20260505014603 57 117 3.0 10.0 0.00 0.00 0.00 80 1013.9
20260505013050 57 328 3.0 11.0 0.00 0.00 0.00 79 1013.8
20260505011544 58 117 4.0 12.0 0.00 0.00 0.00 78 1013.9
20260505010053 58 145 5.0 12.0 0.00 0.00 0.00 78 1014.2
20260505004548 58 182 4.0 12.0 0.00 0.00 0.00 78 1014.2
20260505003053 59 122 6.0 16.0 0.00 0.00 0.00 76 1014.3
20260505001541 60 58 4.0 16.0 0.00 0.00 0.00 76 1014.3
20260505000043 61 184 6.0 13.0 0.00 0.00 0.00 72 1014.2
20260504234545 63 141 4.0 12.0 0.00 0.00 0.00 73 1014.1
20260504233039 62 325 4.0 12.0 0.00 0.00 0.00 72 1014.1
20260504231539 62 137 2.0 11.0 0.00 0.00 0.00 74 1014.3
20260504230046 62 177 1.0 10.0 0.00 0.00 0.00 75 1014.3
20260504224543 61 186 4.0 14.0 0.00 0.00 0.00 77 1014.4
20260504223058 62 140 4.0 12.0 0.00 0.00 0.00 75 1014.5
20260504221540 62 181 6.0 11.0 0.00 0.00 0.00 74 1014.6
20260504220040 62 198 4.0 13.0 0.00 0.00 0.00 74 1014.7
20260504214538 61 79 5.0 13.0 0.00 0.00 0.00 76 1014.7
20260504213044 62 129 5.0 12.0 0.00 0.00 0.00 74 1014.7
20260504211615 61 141 5.0 11.0 0.00 0.00 0.00 74 1014.9
20260504210046 60 186 6.0 11.0 0.00 0.00 0.00 77 1015.0
20260504204539 61 244 2.0 10.0 0.00 0.00 0.00 77 1015.1
20260504203049 61 117 5.0 15.0 0.00 0.00 0.00 76 1015.1
20260504201538 60 160 5.0 12.0 0.00 0.00 0.00 78 1014.9
20260504200043 60 145 6.0 11.0 0.00 0.00 0.00 77 1014.9
20260504194549 60 131 2.0 11.0 0.00 0.00 0.00 78 1014.9
20260504193041 60 146 6.0 12.0 0.00 0.00 0.00 77 1014.8
20260504191546 59 182 5.0 10.0 0.00 0.00 0.00 78 1014.8
20260504184550 57 198 5.0 11.0 0.00 0.00 0.00 82 1014.8
20260504183042 57 141 7.0 12.0 0.00 0.00 0.00 81 1014.8
20260504181538 57 198 4.0 11.0 0.00 0.00 0.00 82 1014.9
20260504180039 57 174 6.0 10.0 0.00 0.00 0.00 82 1014.8
20260504174543 58 158 5.0 8.0 0.00 0.00 0.00 81 1014.6
20260504173050 58 112 2.0 7.0 0.00 0.00 0.00 82 1014.6
20260504171544 59 171 2.0 6.0 0.00 0.00 0.00 80 1014.6